Kecskemet, Hungary

11:13 PM CEST on June 23, 2017 (GMT +0200)
Kecskemet

Weather History for LHKE - February, 2014

Change the Weather History Date:

Sunday, February 2, 2014

  Actual Average (LHBP) Record (LHBP)
Temperature  
Mean Temperature 28 °F -  
Max Temperature 35 °F 38 °F 55 °F (2002)
Min Temperature 21 °F 23 °F 3 °F (2012)
Degree Days  
Heating Degree Days 36    
Moisture  
Dew Point 24 °F    
Average Humidity 72    
Maximum Humidity 93    
Minimum Humidity 54    
Precipitation  
Precipitation 0.00 in - - ()
Sea Level Pressure  
Sea Level Pressure 30.17 in    
Wind  
Wind Speed 7 mph ()    
Max Wind Speed 13 mph    
Max Gust Speed -    
Visibility 6.3 miles    
Events Fog , Rain    
Averages and records for this station are not official NWS values.
T = Trace of Precipitation, MM = Missing Value Source: Averaged Metar Reports

Daily Weather History Graph

Daily Weather History Graph

Search for Another Location

Airport or City:

Trip Planner

Search our weather history database for the weather conditions in past years. The results will help you decide how hot, cold, wet, or windy it might be!

Date:

Astronomy

Feb. 02, 2014 Rise Set
Actual Time 7:04 AM CET 4:45 PM CET
Civil Twilight 6:32 AM CET 5:17 PM CET
Nautical Twilight 5:55 AM CET 5:54 PM CET
Astronomical Twilight 5:20 AM CET 6:29 PM CET
Moon 8:06 AM CET (2/2) 8:24 PM CET (2/2)
Length of Visible Light 10h 45m
Length of Day
9h 40m
Waxing Crescent, 9% of the Moon is Illuminated
Feb 2
Waxing Crescent
Feb 6
First Quarter
Feb 15
Full
Feb 22
Last Quarter
Mar 1
New

Hourly Weather History & Observations

Time (CET) Temp. Windchill Dew Point Humidity Pressure Visibility Wind Dir Wind Speed Gust Speed Precip Events Conditions
12:00 AM 31 °F - 24 °F 64% 30.18 in 9 mi SE 8.9 mph - -   Partly Cloudy
12:15 AM 30.2 °F 22.1 °F 24.8 °F 80% 30.12 in - SE 8.9 mph - N/A   Clear
12:45 AM 32.0 °F 23.2 °F 24.8 °F 75% 30.12 in - SE 11.2 mph - N/A   Clear
1:00 AM 19 °F - 17 °F 87% 30.30 in 2 mi North 2.2 mph - -   Mist
1:15 AM 32.0 °F 22.2 °F 24.8 °F 75% 30.12 in - ESE 13.4 mph - N/A   Clear
1:29 AM 30.2 °F 19.9 °F 24.8 °F 80% 30.12 in 6.2 mi ESE 13.4 mph - N/A Rain Light Freezing Rain
1:45 AM 30.2 °F 19.9 °F 24.8 °F 80% 30.12 in 6.2 mi ESE 13.4 mph - N/A Rain Light Freezing Rain
2:00 AM 31 °F - 25 °F 69% 30.15 in 6 mi ESE 13.4 mph - -   Light Freezing Rain
2:15 AM 30.2 °F 20.9 °F 24.8 °F 80% 30.12 in - ESE 11.2 mph - N/A   Clear
2:45 AM 32.0 °F 23.2 °F 24.8 °F 75% 30.12 in - ESE 11.2 mph - N/A   Clear
3:00 AM 31 °F - 25 °F 69% 30.16 in 9 mi ESE 11.2 mph - - Rain Light Freezing Drizzle
3:15 AM 32.0 °F 24.3 °F 24.8 °F 75% 30.12 in - ESE 8.9 mph - N/A   Clear
3:45 AM 32.0 °F 24.3 °F 24.8 °F 75% 30.09 in - East 8.9 mph - N/A   Clear
3:55 AM 30.2 °F 23.5 °F 24.8 °F 80% 30.09 in 6.2 mi ESE 6.7 mph - N/A Rain Light Freezing Rain
4:00 AM 31 °F - 24 °F 67% 30.14 in 9 mi East 8.9 mph - -   Partly Cloudy
4:15 AM 30.2 °F 23.5 °F 24.8 °F 80% 30.09 in 6.2 mi ESE 6.7 mph - N/A Rain Light Freezing Rain
4:45 AM 30.2 °F 23.5 °F 24.8 °F 80% 30.09 in - East 6.7 mph - N/A   Clear
5:00 AM 30 °F - 24 °F 71% 30.14 in 6 mi East 6.7 mph - - Rain Light Freezing Drizzle
5:15 AM 30.2 °F 25.5 °F 24.8 °F 80% 30.12 in - East 4.5 mph - N/A   Clear
5:45 AM - - - N/A% - 3.7 mi ESE 8.9 mph - N/A Rain Light Freezing Rain
6:00 AM 30 °F - 25 °F 74% 30.14 in 6 mi East 4.5 mph - -   Overcast
6:15 AM 30.2 °F 25.5 °F 24.8 °F 80% 30.09 in - SE 4.5 mph - N/A   Clear
6:45 AM 30.2 °F 25.5 °F 24.8 °F 80% 30.09 in - ESE 4.5 mph - N/A   Clear
7:00 AM 30 °F - 25 °F 76% 30.14 in 9 mi ESE 4.5 mph - -   Partly Cloudy
7:15 AM 30.2 °F 25.5 °F 24.8 °F 80% 30.12 in 5.0 mi ESE 4.5 mph - N/A   Unknown
7:45 AM 30.2 °F 25.5 °F 23.0 °F 75% 30.12 in 5.0 mi ESE 4.5 mph - N/A   Unknown
8:00 AM 30 °F - 23 °F 67% 30.17 in 5 mi ESE 4.5 mph - -   Partly Cloudy
8:15 AM 30.2 °F 22.1 °F 23.0 °F 75% 30.12 in 5.0 mi ESE 8.9 mph - N/A   Unknown
8:45 AM - - - N/A% - - ESE 8.9 mph - N/A   Clear
9:00 AM 31 °F - 23 °F 62% 30.17 in 6 mi ESE 6.7 mph - -   Partly Cloudy
9:15 AM 32.0 °F 24.3 °F 23.0 °F 69% 30.15 in - ESE 8.9 mph - N/A   Clear
9:45 AM 32.0 °F 24.3 °F 23.0 °F 69% 30.15 in - SE 8.9 mph - N/A   Clear
10:00 AM 32 °F - 23 °F 60% 30.18 in 9 mi SE 8.9 mph - -   Partly Cloudy
10:15 AM 32.0 °F 25.7 °F 23.0 °F 69% 30.15 in - ESE 6.7 mph - N/A   Clear
10:45 AM 32.0 °F 24.3 °F 23.0 °F 69% 30.15 in - ESE 8.9 mph - N/A   Clear
11:00 AM 33 °F - 24 °F 59% 30.18 in 12 mi ESE 8.9 mph - -   Mostly Cloudy
11:15 AM 33.8 °F 27.9 °F 23.0 °F 65% 30.15 in - ESE 6.7 mph - N/A   Clear
11:45 AM - - - N/A% - - ESE 8.9 mph - N/A   Clear
12:00 PM 33 °F - 24 °F 57% 30.19 in 12 mi SE 8.9 mph - -   Scattered Clouds
12:15 PM 33.8 °F 27.9 °F 23.0 °F 65% 30.15 in - ESE 6.7 mph - N/A   Clear
12:45 PM 33.8 °F 27.9 °F 24.8 °F 70% 30.15 in - ESE 6.7 mph - N/A   Clear
1:00 PM 34 °F - 25 °F 58% 30.18 in 12 mi ESE 6.7 mph - -   Scattered Clouds
1:15 PM 33.8 °F 26.5 °F 24.8 °F 70% 30.15 in - ESE 8.9 mph - N/A   Clear
1:45 PM 35.6 °F 27.7 °F 24.8 °F 65% 30.12 in - ESE 11.2 mph - N/A   Clear
2:00 PM 35 °F - 25 °F 55% 30.17 in 12 mi ESE 11.2 mph - -   Mostly Cloudy
2:15 PM 35.6 °F 27.7 °F 24.8 °F 65% 30.15 in - ESE 11.2 mph - N/A   Clear
2:45 PM - - - N/A% - 2.5 mi ESE 8.9 mph - N/A   Clear
3:00 PM 35 °F - 25 °F 55% 30.18 in 12 mi ESE 8.9 mph - -   Mostly Cloudy
3:15 PM 35.6 °F 28.7 °F 24.8 °F 65% 30.15 in - ESE 8.9 mph - N/A   Clear
3:45 PM 35.6 °F 30.0 °F 24.8 °F 65% 30.15 in - ESE 6.7 mph - N/A   Clear
4:00 PM 35 °F - 24 °F 54% 30.19 in 12 mi ESE 6.7 mph - -   Mostly Cloudy
4:15 PM 33.8 °F 27.9 °F 24.8 °F 70% 30.18 in - ESE 6.7 mph - N/A   Clear
4:45 PM 33.8 °F 27.9 °F 24.8 °F 70% 30.18 in - East 6.7 mph - N/A   Clear
5:00 PM 33 °F - 25 °F 62% 30.22 in 9 mi East 6.7 mph - -   Mostly Cloudy
5:15 PM 32.0 °F 25.7 °F 24.8 °F 75% 30.18 in - East 6.7 mph - N/A   Clear
5:45 PM - - - N/A% - 2.5 mi Variable 4.5 mph - N/A   Clear
6:00 PM 32 °F - 25 °F 65% 30.23 in 6 mi East 6.7 mph - -   Overcast
6:15 PM 32.0 °F 27.6 °F 24.8 °F 75% 30.21 in - East 4.5 mph - N/A   Clear
6:45 PM 32.0 °F 27.6 °F 24.8 °F 75% 30.21 in - East 4.5 mph - N/A   Clear
7:00 PM 31 °F - 24 °F 66% 30.25 in 6 mi East 4.5 mph - -   Overcast
7:15 PM 30.2 °F 25.5 °F 23.0 °F 75% 30.21 in - East 4.5 mph - N/A   Clear
7:45 PM 30.2 °F 25.5 °F 23.0 °F 75% 30.21 in - East 4.5 mph - N/A   Clear
8:00 PM 30 °F - 24 °F 68% 30.25 in 6 mi East 4.5 mph - -   Partly Cloudy
8:15 PM 26.6 °F - 21.2 °F 80% 30.21 in 5.6 mi Calm Calm - N/A   Unknown
8:45 PM - - - N/A% - 2.5 mi Variable 4.5 mph - N/A   Mist
9:00 PM 26 °F - 22 °F 77% 30.25 in 5 mi NE 2.2 mph - -   Scattered Clouds
9:15 PM 24.8 °F - 21.2 °F 86% 30.21 in 4.3 mi ENE 2.2 mph - N/A   Unknown
9:45 PM 23.0 °F - 19.4 °F 86% 30.21 in 4.3 mi ENE 2.2 mph - N/A   Unknown
10:00 PM 24 °F - 20 °F 80% 30.27 in 4 mi ENE 2.2 mph - -   Scattered Clouds
10:15 PM 23.0 °F - 21.2 °F 93% 30.21 in 4.3 mi ENE 2.2 mph - N/A   Unknown
10:45 PM 23.0 °F - 19.4 °F 86% 30.24 in 4.3 mi ENE 2.2 mph - N/A   Unknown
11:00 PM 22 °F - 20 °F 86% 30.28 in 4 mi ENE 2.2 mph - -   Clear
11:15 PM 21.2 °F 15.0 °F 17.6 °F 86% 30.24 in 3.7 mi NE 4.5 mph - N/A   Unknown
11:45 PM - - - N/A% - 0.2 mi North - - N/A Fog Light Freezing Fog